Location: Saint Louis
(38.6272°N, 90.1978°W)
Time: 22:18:11
(UTC-05:00)

Hubble Space Telescope - Visible Passes

Search period start: 29 June 2016 00:00
Search period end: 09 July 2016 00:00
Orbit: 539 x 543 km, 28.5° (Epoch: 29 June)

Date Brightness Start Highest point End Pass type
(mag) Time Alt. Az. Time Alt. Az. Time Alt. Az.
30 Jun 2.7 22:02:11 10° SSW 22:03:43 15° S 22:03:43 15° S visible
01 Jul 2.4 21:52:11 10° SW 21:54:58 18° S 21:54:58 18° S visible
02 Jul 2.3 21:42:15 10° SW 21:45:12 19° S 21:46:01 18° SSE visible
03 Jul 2.3 21:32:23 10° SW 21:35:24 20° S 21:36:56 16° SSE visible
04 Jul 2.3 21:22:34 10° SW 21:25:37 20° S 21:27:45 14° SE visible
05 Jul 2.4 21:12:47 10° SW 21:15:49 20° S 21:18:30 11° SE visible
06 Jul 2.5 21:03:03 10° SW 21:06:01 19° S 21:08:59 10° SE visible
07 Jul 2.6 20:53:22 10° SW 20:56:13 18° S 20:59:04 10° SE visible
